(313) Chaldaea
ephemeris date magn radius delta ra dec elong phase
Today18 Jul 202513.92.259 AU2.297 AU12h48m+02°44'75.0°25.8°
Opposition24 Jul 202613.12.793 AU1.800 AU20h03m-05°08'165.0°5.4°
(313) Chaldaea - 2025-07-18
astro.vanbuitenen.nl


 
-1 year
-1 month
-1 day
Now
+1 day
+1 month
+1 year

The interactive orbit chart above shows the body's path through the solar system and its position at the given date. Green and blue lines are shown perpendicular to the ecliptic plane: Green if the path is above the ecliptic plane, blue if it is below. (Left-click and drag to rotate the view; Right-click and drag to move the view; Use scroll wheel to zoom in our out.)

The orbital elements of Chaldaea are:

            e (Eccentricity)                : 0.1808084
            a (Semimajor axis)              : 2.3753201
            i (Inclination)                 : 11.64441
            Ω (Longitude of ascending node) : 176.53710
            ω (Argument of perihelion)      : 315.68823
            M (Mean anomaly)                : 44.34067
            Epoch                           : 2025 May 05

            L (Longitude of perihelion)     : 132.82072
            B (Latitude of perihelion)      : -8.10547
            P (Orbital period in years)     : 3.66            
        

The light curve chart below shows the estimated development of the minor planet's magnitude.


The all-sky chart below shows the path of the minor planet over the same period as the light curve. The current position is marked yellow.





The following chart shows the path of the minor planet in the next few days. The field of view is optimized for (~10x50) binoculars and finderscopes. A more printer-friendly version of the same chart can be found below.




Ephemerides:
Date       Time       RA (2000)    DEC (2000)    delta   radius  elong  phase   PA    magn
2025-07-18 00:00 UT   12 48 54.5   +02 44 37     2.297    2.259   75.0   25.8   111   13.9 
2025-07-18 22:50 UT   12 50 16.9   +02 36 26     2.310    2.261   74.5   25.7   111   13.9 
2025-07-19 00:00 UT   12 50 21.1   +02 36 01     2.310    2.261   74.4   25.7   111   13.9 
2025-07-20 00:00 UT   12 51 48.1   +02 27 22     2.323    2.263   73.9   25.6   111   14.0 
2025-07-21 00:00 UT   12 53 15.4   +02 18 41     2.336    2.265   73.3   25.5   111   14.0 
2025-07-22 00:00 UT   12 54 43.1   +02 09 57     2.349    2.267   72.8   25.3   111   14.0 
2025-07-23 00:00 UT   12 56 11.3   +02 01 11     2.362    2.269   72.2   25.2   111   14.0 
2025-07-24 00:00 UT   12 57 39.8   +01 52 23     2.375    2.271   71.7   25.1   110   14.0 
2025-07-25 00:00 UT   12 59 08.6   +01 43 33     2.388    2.273   71.1   25.0   110   14.0 
2025-07-26 00:00 UT   13 00 37.9   +01 34 41     2.401    2.275   70.6   24.9   110   14.0 
2025-07-27 00:00 UT   13 02 07.5   +01 25 46     2.414    2.277   70.0   24.8   110   14.0 
2025-07-28 00:00 UT   13 03 37.4   +01 16 51     2.427    2.279   69.5   24.7   110   14.0 
2025-07-29 00:00 UT   13 05 07.7   +01 07 53     2.440    2.281   69.0   24.5   110   14.0 
2025-07-30 00:00 UT   13 06 38.4   +00 58 54     2.452    2.283   68.4   24.4   110   14.1 
2025-07-31 00:00 UT   13 08 09.4   +00 49 54     2.465    2.285   67.9   24.3   109   14.1 
2025-08-01 00:00 UT   13 09 40.7   +00 40 52     2.478    2.287   67.3   24.2   109   14.1 
2025-08-02 00:00 UT   13 11 12.3   +00 31 49     2.491    2.289   66.8   24.0   109   14.1 
2025-08-03 00:00 UT   13 12 44.2   +00 22 46     2.503    2.291   66.3   23.9   109   14.1 
2025-08-04 00:00 UT   13 14 16.5   +00 13 41     2.516    2.293   65.7   23.8   109   14.1 
2025-08-05 00:00 UT   13 15 49.1   +00 04 35     2.528    2.295   65.2   23.6   109   14.1 
2025-08-06 00:00 UT   13 17 21.9   +00 04 32     2.541    2.298   64.7   23.5   109   14.1 
2025-08-07 00:00 UT   13 18 55.1   +00 13 39     2.553    2.300   64.1   23.4   109   14.1 
2025-08-08 00:00 UT   13 20 28.5   +00 22 47     2.566    2.302   63.6   23.2   108   14.1 


    Terminology:
            
    delta:  distance between minor planet and earth in AU
    radius: distance between minor planet and sun in AU
    magn:   magnitude (brightness) estimate    
    ra:     right ascension in hours (24h = 360deg)
    dec:    declination in degrees
    elong:  elongation in degrees (angle sun-earth-minor planet)    
    phase:  phase angle in degrees (angle sun-minor planet-earth)        
    AU:     Astronomical Unit (mean distance between earth and sun: 149597870.7 km
    

Orbital elements provided by the MPC (Minor Planet Center).
Calculations by a modified version of AAPlus, a C# implementation of the AA+ project by PJ Naughter from the algorithms presented in the book "Astronomical Algorithms" by Jean Meeus.
NGC2000 dso catalog and star labels from VizieR as provided by the Strasbourg astronomical Data Center.
Tycho2 catalog from the ESO archive.